FW8247 Weather Reports


time (UTC)temp
C
wind
direction
speed
KPH
gust
KPH
rain 1hr
cm
rain 24hr
cm
rain mn
cm
humidity
%
barometer
mb
20260506092438 3 92 0.0 0.0 0.00 0.00 0.00 99 1019.4
20260506091934 3 92 0.0 0.0 0.00 0.00 0.00 99 1019.4
20260506091432 3 92 0.0 0.0 0.00 0.00 0.00 99 1019.3
20260506090929 3 99 0.0 0.0 0.00 0.00 0.00 99 1019.2
20260506090427 3 100 0.0 0.0 0.00 0.00 0.00 99 1019.1
20260506085923 3 104 0.0 0.0 0.00 0.00 0.00 99 1019.1
20260506085420 3 85 0.0 0.0 0.00 0.00 0.00 99 1019.2
20260506084916 3 96 0.0 0.0 0.00 0.00 0.00 99 1019.1
20260506084414 3 96 0.0 0.0 0.00 0.00 0.00 99 1019.1
20260506083910 3 79 0.0 0.0 0.00 0.00 0.00 99 1019.3
20260506083407 3 94 0.0 0.0 0.00 0.00 0.00 99 1019.2
20260506082904 3 96 0.0 0.0 0.00 0.00 0.00 99 1019.1
20260506082401 3 105 0.0 0.0 0.00 0.00 0.00 99 1019.2
20260506081857 3 93 0.0 0.0 0.00 0.00 0.00 99 1018.9
20260506081355 3 92 0.0 0.0 0.00 0.00 0.00 99 1018.9
20260506080852 4 92 0.0 0.0 0.00 0.00 0.00 99 1018.9
20260506080349 4 92 0.0 0.0 0.00 0.00 0.00 99 1018.9
20260506073333 4 96 0.0 0.0 0.00 0.00 0.00 99 1018.6
20260506072830 4 96 0.0 0.0 0.00 0.00 0.00 98 1018.6
20260506072328 3 96 0.0 0.0 0.00 0.00 0.00 98 1018.7
20260506071825 4 93 0.0 0.0 0.00 0.00 0.00 98 1018.5
20260506071323 5 96 0.0 0.0 0.00 0.00 0.00 98 1018.3
20260506070820 5 96 0.0 0.0 0.00 0.00 0.00 98 1018.2
20260506070317 5 92 0.0 0.0 0.00 0.00 0.00 98 1018.1
20260506062254 6 106 0.0 0.0 0.00 0.00 0.00 97 1017.7
20260506061750 6 99 0.0 0.0 0.00 0.00 0.00 97 1017.5
20260506061247 6 99 0.0 0.0 0.00 0.00 0.00 97 1017.5
20260506060745 6 96 0.0 0.0 0.00 0.00 0.00 96 1017.5
20260506060243 6 105 0.0 0.0 0.00 0.00 0.00 96 1017.6
20260506051214 8 96 0.0 0.0 0.00 0.00 0.00 92 1017.0
20260506050713 8 96 0.0 0.0 0.00 0.00 0.00 92 1016.9
20260506050209 8 96 0.0 0.0 0.00 0.00 0.00 92 1016.8
20260506044701 9 86 1.6 1.6 0.00 0.00 0.00 91 1016.8
20260506044157 9 105 0.0 0.0 0.00 0.00 0.00 91 1016.7
20260506043654 9 103 0.0 0.0 0.00 0.00 0.00 91 1016.6
20260506043152 9 89 0.0 0.0 0.00 0.00 0.00 91 1016.4
20260506042651 9 89 0.0 0.0 0.00 0.00 0.00 90 1016.6
20260506042149 9 96 0.0 0.0 0.00 0.00 0.00 90 1016.3
20260506041652 10 108 0.0 0.0 0.00 0.00 0.00 89 1016.6
20260506041143 10 114 0.0 0.0 0.00 0.00 0.00 89 1016.4
20260506040641 10 106 0.0 1.6 0.00 0.00 0.00 89 1016.3
20260506040138 10 91 0.0 0.0 0.00 0.00 0.00 88 1016.3
20260506035635 10 88 0.0 0.0 0.00 0.00 0.00 87 1016.3
20260506035131 10 104 0.0 0.0 0.00 0.00 0.00 86 1015.7
20260506034629 10 106 0.0 0.0 0.00 0.00 0.00 85 1015.8
20260506034125 10 90 0.0 0.0 0.00 0.00 0.00 84 1015.7
20260506033623 11 89 0.0 0.0 0.00 0.00 0.00 83 1015.7
20260506033120 11 94 0.0 0.0 0.00 0.00 0.00 82 1015.5
20260506032617 11 96 0.0 0.0 0.00 0.00 0.00 81 1015.6
20260506032114 11 99 0.0 0.0 0.00 0.00 0.00 80 1015.5
20260506031611 11 90 0.0 0.0 0.00 0.00 0.00 80 1015.2
20260506031108 11 111 0.0 0.0 0.00 0.00 0.00 80 1015.4
20260506030607 11 82 0.0 0.0 0.00 0.00 0.00 80 1015.0
20260506030103 11 97 0.0 0.0 0.00 0.00 0.00 79 1015.2
20260506025600 12 124 0.0 1.6 0.00 0.00 0.00 78 1015.1
20260506025056 12 162 3.2 3.2 0.00 0.00 0.00 78 1015.1
20260506024554 12 160 4.8 4.8 0.00 0.00 0.00 78 1015.0
20260506024050 12 143 1.6 1.6 0.00 0.00 0.00 77 1014.9
20260506023545 13 101 1.6 3.2 0.00 0.00 0.00 76 1014.8
20260506023044 13 70 1.6 1.6 0.00 0.00 0.00 73 1014.9
20260506022541 14 94 0.0 0.0 0.00 0.00 0.00 71 1014.6
20260506022038 15 113 0.0 0.0 0.00 0.00 0.00 68 1014.4
20260506021536 15 123 3.2 4.8 0.00 0.00 0.00 68 1014.4
20260506021033 15 113 1.6 1.6 0.00 0.00 0.00 65 1014.5
20260506020530 15 156 1.6 1.6 0.00 0.00 0.00 65 1014.2
20260506020027 16 146 1.6 1.6 0.00 0.00 0.00 63 1014.3
20260506015525 15 126 1.6 1.6 0.00 0.00 0.00 66 1014.2
20260506015021 15 143 1.6 3.2 0.00 0.00 0.00 67 1014.3
20260506014519 15 111 1.6 1.6 0.00 0.00 0.00 67 1014.3
20260506014009 15 94 0.0 0.0 0.00 0.00 0.00 67 1013.9
20260506013507 15 215 4.8 4.8 0.00 0.00 0.00 64 1014.2
20260506013004 16 57 1.6 3.2 0.00 0.00 0.00 60 1013.9
20260506012459 16 204 0.0 0.0 0.00 0.00 0.00 55 1014.2
20260506011956 17 73 3.2 3.2 0.00 0.00 0.00 51 1013.8
20260506011453 18 39 3.2 3.2 0.00 0.00 0.00 47 1013.8
20260506010950 17 43 3.2 4.8 0.00 0.00 0.00 47 1014.1
20260506010449 16 54 3.2 3.2 0.00 0.00 0.00 50 1013.9
20260506005944 16 56 1.6 1.6 0.00 0.00 0.00 50 1013.6
20260506005444 17 68 3.2 3.2 0.00 0.00 0.00 48 1013.7
20260506004938 18 61 0.0 0.0 0.00 0.00 0.00 46 1014.1
20260506004436 18 45 0.0 1.6 0.00 0.00 0.00 48 1013.7
20260506003932 18 11 4.8 4.8 0.00 0.00 0.00 46 1013.6
20260506003429 18 55 3.2 3.2 0.00 0.00 0.00 46 1013.8
20260506002925 18 332 4.8 8.0 0.00 0.00 0.00 46 1013.7
20260506002421 17 4 3.2 4.8 0.00 0.00 0.00 48 1013.7
20260506001917 17 67 1.6 1.6 0.00 0.00 0.00 49 1013.6
20260506001415 17 74 1.6 1.6 0.00 0.00 0.00 47 1013.3
20260506000912 17 58 3.2 4.8 0.00 0.00 0.00 47 1013.8
20260506000409 17 70 4.8 4.8 0.00 0.00 0.00 47 1013.8
20260505235905 18 61 3.2 4.8 0.00 0.00 0.00 48 1013.7
20260505235404 18 61 1.6 1.6 0.00 0.00 0.00 47 1013.6
20260505234900 17 59 0.0 1.6 0.00 0.00 0.00 48 1013.8
20260505234358 17 62 0.0 1.6 0.00 0.00 0.00 47 1013.7
20260505233854 17 68 3.2 3.2 0.00 0.00 0.00 49 1013.7
20260505233352 17 67 3.2 3.2 0.00 0.00 0.00 50 1013.8
20260505232850 18 80 4.8 8.0 0.00 0.00 0.00 48 1013.8
20260505232348 17 76 3.2 3.2 0.00 0.00 0.00 50 1013.8
20260505231844 17 299 4.8 8.0 0.00 0.00 0.00 48 1013.5
20260505231341 17 32 4.8 4.8 0.00 0.00 0.00 49 1013.8
20260505230839 18 45 4.8 8.0 0.00 0.00 0.00 49 1013.7
20260505230336 17 19 4.8 4.8 0.00 0.00 0.00 49 1013.7
20260505225833 17 62 1.6 1.6 0.00 0.00 0.00 50 1013.8
20260505225330 17 22 4.8 8.0 0.00 0.00 0.00 51 1013.6
20260505224825 17 44 3.2 4.8 0.00 0.00 0.00 50 1013.9
20260505224323 17 86 8.0 11.3 0.00 0.00 0.00 50 1013.9
20260505223820 16 48 4.8 8.0 0.00 0.00 0.00 52 1014.2
20260505223317 17 261 4.8 4.8 0.00 0.00 0.00 50 1013.9
20260505222813 16 41 3.2 8.0 0.00 0.00 0.00 53 1014.2
20260505222309 16 70 1.6 1.6 0.00 0.00 0.00 50 1014.1
20260505221806 16 59 1.6 1.6 0.00 0.00 0.00 52 1014.2
20260505221303 16 165 1.6 4.8 0.00 0.00 0.00 51 1014.3
20260505220800 16 41 11.3 16.1 0.00 0.00 0.00 50 1014.2
20260505220257 16 56 4.8 8.0 0.00 0.00 0.00 56 1014.3
20260505215755 16 68 3.2 4.8 0.00 0.00 0.00 55 1014.4
20260505215253 16 71 1.6 1.6 0.00 0.00 0.00 54 1014.3
20260505214750 16 102 4.8 4.8 0.00 0.00 0.00 54 1014.5
20260505214247 15 82 1.6 1.6 0.00 0.00 0.00 57 1014.4
20260505213745 15 62 4.8 8.0 0.00 0.00 0.00 54 1014.5
20260505213242 16 91 3.2 4.8 0.00 0.00 0.00 55 1014.6
20260505212737 15 115 4.8 8.0 0.00 0.00 0.00 55 1014.5
20260505212235 15 86 0.0 1.6 0.00 0.00 0.00 58 1014.8
20260505211732 15 65 4.8 4.8 0.00 0.00 0.00 56 1014.8
20260505211229 15 86 0.0 1.6 0.00 0.00 0.00 59 1014.5
20260505210726 15 56 4.8 8.0 0.00 0.00 0.00 58 1014.4
20260505210222 15 84 8.0 9.7 0.00 0.00 0.00 56 1014.4
20260505205720 15 70 4.8 8.0 0.00 0.00 0.00 59 1014.4
20260505205218 14 57 9.7 12.9 0.00 0.00 0.00 58 1014.6
20260505204714 15 16 4.8 4.8 0.00 0.00 0.00 61 1014.6
20260505204212 15 55 6.4 9.7 0.00 0.00 0.00 59 1014.5
20260505203709 14 73 6.4 8.0 0.00 0.00 0.00 60 1014.8
20260505203206 15 25 8.0 9.7 0.00 0.00 0.00 57 1014.4
20260505202702 13 29 6.4 11.3 0.00 0.00 0.00 61 1014.5
20260505202158 14 35 3.2 3.2 0.00 0.00 0.00 62 1014.6
20260505201654 14 99 1.6 1.6 0.00 0.00 0.00 63 1014.8
20260505201153 13 241 6.4 9.7 0.00 0.00 0.00 66 1014.5
20260505200651 13 259 8.0 9.7 0.00 0.00 0.00 64 1014.5
20260505200147 13 41 1.6 4.8 0.00 0.00 0.00 67 1014.8
20260505195643 13 72 3.2 8.0 0.00 0.00 0.00 69 1014.8
20260505195140 13 234 6.4 9.7 0.00 0.00 0.00 70 1014.6
20260505194638 12 339 6.4 9.7 0.00 0.00 0.00 72 1015.1
20260505194133 13 208 4.8 8.0 0.00 0.00 0.00 69 1014.8
20260505193630 12 271 3.2 3.2 0.00 0.00 0.00 72 1015.0
20260505193127 13 36 1.6 3.2 0.00 0.00 0.00 73 1015.0
20260505192626 12 55 3.2 4.8 0.00 0.00 0.00 75 1014.8
20260505192123 13 65 1.6 3.2 0.00 0.00 0.00 69 1014.9
20260505191622 12 39 0.0 1.6 0.00 0.00 0.00 73 1015.0
20260505191119 12 320 8.0 11.3 0.00 0.00 0.00 74 1015.2
20260505190615 12 71 1.6 3.2 0.00 0.00 0.00 74 1015.0
20260505190110 11 55 4.8 4.8 0.00 0.00 0.00 75 1015.0
20260505185607 11 137 0.0 1.6 0.00 0.00 0.00 81 1014.6
20260505185103 10 153 3.2 3.2 0.00 0.00 0.00 82 1014.9
20260505184600 10 74 1.6 3.2 0.00 0.00 0.00 81 1014.8
20260505184056 11 253 4.8 4.8 0.00 0.00 0.00 82 1015.0
20260505183553 10 93 0.0 1.6 0.00 0.00 0.00 82 1015.0
20260505183051 10 359 1.6 3.2 0.00 0.00 0.00 84 1015.0
20260505182547 10 112 0.0 0.0 0.00 0.00 0.00 82 1014.8
20260505182044 10 34 0.0 1.6 0.00 0.00 0.00 83 1014.8
20260505181541 9 112 0.0 0.0 0.00 0.00 0.00 85 1014.8
20260505181038 8 96 0.0 0.0 0.00 0.00 0.00 86 1014.9
20260505180533 8 86 0.0 0.0 0.00 0.00 0.00 87 1014.8
20260505180032 8 276 3.2 4.8 0.00 0.00 0.00 86 1014.8
20260505175532 8 133 1.6 1.6 0.00 0.00 0.00 87 1014.9
20260505175029 8 176 3.2 3.2 0.00 0.00 0.00 88 1014.8
20260505174526 7 147 1.6 3.2 0.00 0.00 0.00 89 1014.6
20260505174022 8 101 0.0 0.0 0.00 0.00 0.00 88 1014.8
20260505173519 8 79 1.6 1.6 0.00 0.00 0.00 89 1014.5
20260505173016 7 120 0.0 1.6 0.00 0.00 0.00 87 1014.6
20260505172514 7 86 0.0 0.0 0.00 0.00 0.00 91 1014.5
20260505172009 6 80 0.0 0.0 0.00 0.00 0.00 91 1014.9
20260505171505 6 99 0.0 0.0 0.00 0.00 0.00 93 1014.6
20260505171002 6 108 0.0 0.0 0.00 0.00 0.00 95 1014.8
20260505170458 5 109 0.0 0.0 0.00 0.00 0.00 96 1014.6
20260505165954 5 110 0.0 0.0 0.00 0.00 0.00 98 1014.5
20260505165450 5 124 0.0 0.0 0.00 0.00 0.00 99 1014.4
20260505164946 5 101 0.0 0.0 0.00 0.00 0.00 99 1014.2
20260505164442 5 87 0.0 0.0 0.00 0.00 0.00 99 1014.4
20260505163940 5 87 0.0 0.0 0.00 0.00 0.00 99 1014.3
20260505163439 5 91 0.0 0.0 0.00 0.00 0.00 99 1014.4
20260505162938 5 91 0.0 0.0 0.00 0.00 0.00 99 1014.3
20260505162433 4 91 0.0 0.0 0.00 0.00 0.00 99 1014.3
20260505161930 4 88 0.0 0.0 0.00 0.00 0.00 99 1014.3
20260505161426 4 110 0.0 1.6 0.00 0.00 0.00 99 1014.3
20260505160924 4 104 0.0 0.0 0.00 0.00 0.00 99 1014.1
20260505160422 4 103 0.0 0.0 0.00 0.00 0.00 99 1014.3
20260505152858 3 84 0.0 0.0 0.00 0.00 0.00 99 1013.9
20260505152350 3 82 0.0 0.0 0.00 0.00 0.00 99 1013.8
20260505151849 3 76 0.0 0.0 0.00 0.00 0.00 99 1013.7
20260505151346 3 137 0.0 0.0 0.00 0.00 0.00 99 1013.7
20260505150843 3 122 0.0 0.0 0.00 0.00 0.00 99 1013.5
20260505150340 3 90 0.0 0.0 0.00 0.00 0.00 99 1013.5
20260505140305 3 98 0.0 0.0 0.00 0.00 0.00 99 1012.9
20260505130228 3 98 0.0 0.0 0.00 0.00 0.00 99 1013.0
20260505124719 2 102 0.0 0.0 0.00 0.00 0.00 99 1012.7
20260505124215 2 102 0.0 0.0 0.00 0.00 0.00 99 1012.5
20260505123711 2 102 0.0 0.0 0.00 0.00 0.00 99 1012.3
20260505123208 2 103 0.0 0.0 0.00 0.00 0.00 99 1012.4
20260505122705 2 105 0.0 0.0 0.00 0.00 0.00 99 1012.6
20260505122202 2 109 0.0 0.0 0.00 0.00 0.00 99 1012.4
20260505121658 2 98 0.0 0.0 0.00 0.00 0.00 99 1012.6
20260505121155 2 98 0.0 0.0 0.00 0.00 0.00 99 1012.5
20260505120651 2 98 0.0 0.0 0.00 0.00 0.00 99 1012.7
20260505120147 2 102 0.0 0.0 0.00 0.00 0.00 99 1012.4
20260505115641 2 103 0.0 0.0 0.00 0.00 0.00 99 1012.5
20260505115139 2 94 0.0 0.0 0.00 0.00 0.00 99 1012.3
20260505114636 2 101 0.0 0.0 0.00 0.00 0.00 99 1012.5
20260505114132 2 101 0.0 0.0 0.00 0.00 0.00 99 1012.4
20260505113629 2 98 0.0 0.0 0.00 0.00 0.00 99 1012.3
20260505113125 2 91 0.0 0.0 0.00 0.00 0.00 99 1012.3
20260505112622 2 102 0.0 0.0 0.00 0.00 0.00 99 1012.7
20260505112120 2 98 0.0 0.0 0.00 0.00 0.00 99 1012.5
20260505111614 2 93 0.0 0.0 0.00 0.00 0.00 99 1012.6
20260505111110 2 89 0.0 0.0 0.00 0.00 0.00 99 1012.6
20260505110607 2 112 0.0 0.0 0.00 0.00 0.00 99 1012.5
20260505110104 2 112 0.0 0.0 0.00 0.00 0.00 99 1012.7
20260505102039 2 98 0.0 0.0 0.00 0.00 0.00 99 1012.6
20260505101537 2 98 0.0 0.0 0.00 0.00 0.00 99 1012.5
20260505101033 2 98 0.0 0.0 0.00 0.00 0.00 99 1012.6
20260505100530 2 98 0.0 0.0 0.00 0.00 0.00 99 1012.7
20260505100027 2 97 0.0 0.0 0.00 0.00 0.00 99 1012.7
20260505095523 2 97 0.0 0.0 0.00 0.00 0.00 99 1012.6
20260505095020 2 104 0.0 0.0 0.00 0.00 0.00 99 1013.0
20260505094516 2 90 0.0 0.0 0.00 0.00 0.00 99 1012.7
20260505094013 2 98 0.0 0.0 0.00 0.00 0.00 99 1012.9
20260505093509 2 98 0.0 0.0 0.00 0.00 0.00 99 1012.9
20260505093007 2 103 0.0 0.0 0.00 0.00 0.00 99 1013.0